Weather History for Nenana, AK

Change the Weather History Date:

Wednesday, November 7, 2012

  Actual Average Record
Temperature  
Mean Temperature 10 °F -  
Max Temperature 44 °F 13 °F 60 °F (2002)
Min Temperature -23 °F -2 °F -23 °F (2012)
Degree Days  
Heating Degree Days 54    
Moisture  
Dew Point -20 °F    
Average Humidity 74    
Maximum Humidity 89    
Minimum Humidity 67    
Precipitation  
Precipitation 0.08 in - - ()
Sea Level Pressure  
Sea Level Pressure 30.54 in    
Wind  
Wind Speed 1 mph (NW)    
Max Wind Speed 6 mph    
Max Gust Speed -    
Visibility 10 miles    
Events      
Averages and records for this station are not official NWS values.
T = Trace of Precipitation, MM = Missing Value Source: NWS Daily Summary

Daily Weather History Graph

Daily Weather History Graph

Search for Another Location

Airport:

Trip Planner

Search our weather history database for the weather conditions in past years. The results will help you decide how hot, cold, wet, or windy it might be!

Date:

Astronomy

Nov. 07, 2012 Rise Set
Actual Time 9:04 AM AKST 4:14 PM AKST
Civil Twilight 8:06 AM AKST 5:12 PM AKST
Nautical Twilight 7:07 AM AKST 6:11 PM AKST
Astronomical Twilight 6:10 AM AKST 7:07 PM AKST
Moon No Moon Rise 2:40 PM AKST (11/7)
Length of Visible Light 9h 05m
Length of Day
7h 10m
Last Quarter, 41% of the Moon is Illuminated
Nov 7
Last Quarter
Nov 13
New
Nov 20
First Quarter
Nov 28
Full
Dec 6
Last Quarter

Hourly Weather History & Observations

Time (AKST) Temp. Windchill Dew Point Humidity Pressure Visibility Wind Dir Wind Speed Gust Speed Precip Events Conditions
12:53 AM -14.1 °F -28.3 °F -18.9 °F 79% 30.54 in 10.0 mi East 5.8 mph - N/A   Clear
1:53 AM -17.0 °F - -23.1 °F 74% 30.55 in 10.0 mi Calm Calm - N/A   Clear
3:53 AM -20.9 °F - -27.9 °F 70% 30.56 in 10.0 mi Calm Calm - N/A   Clear
4:53 AM -23.1 °F - -29.0 °F 74% 30.56 in 10.0 mi Calm Calm - N/A   Clear
5:53 AM -23.1 °F - -29.9 °F 70% 30.57 in 10.0 mi Calm Calm - N/A   Clear
6:53 AM -23.1 °F - -31.0 °F 67% 30.57 in 10.0 mi Calm Calm - N/A   Clear
7:53 AM -24.0 °F - -29.9 °F 74% 30.58 in 10.0 mi Calm Calm - N/A   Clear
8:09 AM -23.8 °F - -31.0 °F 69% 30.52 in 10.0 mi Calm Calm - N/A   Partly Cloudy
8:53 AM -23.1 °F - -29.0 °F 74% 30.59 in 10.0 mi Calm Calm - N/A   Clear
9:53 AM -23.1 °F - -27.9 °F 78% 30.59 in 10.0 mi Calm Calm - N/A   Clear
10:53 AM -18.0 °F - -24.0 °F 74% 30.60 in 10.0 mi Calm Calm - N/A   Clear
11:53 AM -13.0 °F - -17.0 °F 82% 30.60 in 10.0 mi Calm Calm - N/A   Clear
12:53 PM -9.0 °F - -16.1 °F 71% 30.59 in 10.0 mi Calm Calm - N/A   Clear
1:53 PM -8.0 °F - -14.1 °F 75% 30.58 in 10.0 mi Calm Calm - N/A   Clear
2:53 PM -9.0 °F -18.2 °F -14.1 °F 79% 30.58 in 10.0 mi NW 3.5 mph - N/A   Clear
3:53 PM -9.9 °F -19.2 °F -16.1 °F 74% 30.59 in 10.0 mi WNW 3.5 mph - N/A   Clear
4:53 PM -14.1 °F - -20.0 °F 75% 30.59 in 10.0 mi Calm Calm - N/A   Clear
5:53 PM -16.1 °F - -23.1 °F 71% 30.59 in 10.0 mi Calm Calm - N/A   Clear
6:53 PM -18.9 °F - -25.1 °F 74% 30.59 in 10.0 mi Calm Calm - N/A   Clear
7:53 PM -20.0 °F - -27.0 °F 70% 30.59 in 10.0 mi Calm Calm - N/A   Clear
8:53 PM -20.9 °F - -27.9 °F 70% 30.59 in 10.0 mi Calm Calm - N/A   Clear
9:53 PM -20.0 °F - -27.0 °F 70% 30.58 in 10.0 mi Calm Calm - N/A   Clear
10:53 PM -22.0 °F - -29.0 °F 70% 30.56 in 10.0 mi Calm Calm - N/A   Clear
11:53 PM -22.0 °F - -29.0 °F 70% 30.56 in 10.0 mi Calm Calm - N/A   Clear